When you browse on this site, cookies collect data to enhance your experience and personalize the content and advertising you see.
Visit our Privacy Policy to learn more. By continuing to use the site, you agree to this use of cookies and data.
  • en Suisse
  • Liste des pays
  • À 7 jours
  • Température de l'eau
  • Carte météo
  • Widgets météo
  • user-avatar
    Se connecter

    Météo par heure à Suhl

    Ce jour, 6 Juin, Samedi

    Heure Température Précipitation Vent Pression Humidité
    00:00 +5°C° 0 mm 4 m/s 704 mmHg 95%
    01:00 +4°C° 0 mm 3 m/s 705 mmHg 95%
    02:00 +4°C° 0 mm 3 m/s 705 mmHg 95%
    03:00 +4°C° 0 mm 3 m/s 704 mmHg 96%
    04:00 +4°C° 0 mm 3 m/s 704 mmHg 96%
    05:00 +5°C° 0.1 mm 3 m/s 705 mmHg 94%
    06:00 +6°C° 0.1 mm 4 m/s 705 mmHg 91%
    07:00 +7°C° 0 mm 5 m/s 706 mmHg 87%
    08:00 +7°C° 0.1 mm 5 m/s 706 mmHg 84%
    09:00 +8°C° 0.1 mm 5 m/s 706 mmHg 81%
    10:00 +8°C° 0.1 mm 6 m/s 706 mmHg 79%
    11:00 +8°C° 0.1 mm 5 m/s 707 mmHg 80%
    12:00 +9°C° 0.1 mm 5 m/s 707 mmHg 82%
    13:00 +10°C° 0 mm 5 m/s 707 mmHg 79%
    14:00 +10°C° 0.2 mm 5 m/s 707 mmHg 77%
    15:00 +12°C° 0.2 mm 5 m/s 707 mmHg 76%
    16:00 +13°C° 0.2 mm 5 m/s 707 mmHg 74%
    17:00 +12°C° 0.1 mm 5 m/s 707 mmHg 76%
    18:00 +12°C° 0.1 mm 4 m/s 707 mmHg 79%
    19:00 +12°C° 0.1 mm 3 m/s 707 mmHg 82%
    20:00 +11°C° 0.1 mm 3 m/s 707 mmHg 86%
    21:00 +9°C° 0.1 mm 3 m/s 708 mmHg 91%
    22:00 +8°C° 0.1 mm 2 m/s 708 mmHg 95%
    23:00 +8°C° 0 mm 2 m/s 708 mmHg 95%

    Demain, 7 Juin, Dimanche

    Heure Température Précipitation Vent Pression Humidité
    00:00 +8°C° 0 mm 2 m/s 708 mmHg 96%
    01:00 +7°C° 0 mm 2 m/s 708 mmHg 96%
    02:00 +7°C° 0 mm 2 m/s 708 mmHg 96%
    03:00 +7°C° 0 mm 2 m/s 708 mmHg 96%
    04:00 +7°C° 0 mm 2 m/s 708 mmHg 97%
    05:00 +8°C° 0.1 mm 2 m/s 708 mmHg 94%
    06:00 +9°C° 0.1 mm 3 m/s 709 mmHg 92%
    07:00 +9°C° 0.1 mm 3 m/s 709 mmHg 89%
    08:00 +11°C° 0.1 mm 3 m/s 709 mmHg 80%
    09:00 +12°C° 0.1 mm 3 m/s 710 mmHg 71%
    10:00 +13°C° 0.1 mm 4 m/s 710 mmHg 63%
    11:00 +14°C° 0 mm 4 m/s 711 mmHg 58%
    12:00 +15°C° 0 mm 4 m/s 711 mmHg 54%
    13:00 +15°C° 0 mm 4 m/s 711 mmHg 49%
    14:00 +16°C° 0 mm 3 m/s 711 mmHg 50%
    15:00 +16°C° 0 mm 3 m/s 711 mmHg 51%
    16:00 +16°C° 0 mm 3 m/s 711 mmHg 52%
    17:00 +14°C° 0 mm 3 m/s 711 mmHg 59%
    18:00 +14°C° 0 mm 2 m/s 711 mmHg 65%
    19:00 +14°C° 0 mm 1 m/s 711 mmHg 72%
    20:00 +12°C° 0 mm 1 m/s 712 mmHg 77%
    21:00 +11°C° 0 mm 1 m/s 712 mmHg 82%
    22:00 +9°C° 0 mm 1 m/s 712 mmHg 87%
    23:00 +8°C° 0 mm 1 m/s 712 mmHg 89%

    Après-demain, 8 Juin, Lundi

    Heure Température Précipitation Vent Pression Humidité
    00:00 +8°C° 0 mm 1 m/s 712 mmHg 91%
    01:00 +6°C° 0 mm 0 m/s 712 mmHg 93%
    02:00 +6°C° 0 mm 0 m/s 712 mmHg 93%
    03:00 +6°C° 0 mm 0 m/s 712 mmHg 93%
    04:00 +5°C° 0 mm 0 m/s 712 mmHg 93%
    05:00 +7°C° 0 mm 0 m/s 713 mmHg 86%
    06:00 +9°C° 0 mm 0 m/s 713 mmHg 80%
    07:00 +12°C° 0 mm 0 m/s 713 mmHg 73%
    08:00 +13°C° 0 mm 0 m/s 714 mmHg 67%
    09:00 +16°C° 0 mm 1 m/s 714 mmHg 61%
    10:00 +18°C° 0 mm 1 m/s 714 mmHg 55%
    11:00 +19°C° 0.1 mm 1 m/s 714 mmHg 54%
    12:00 +19°C° 0.1 mm 1 m/s 714 mmHg 52%
    13:00 +19°C° 0.1 mm 1 m/s 714 mmHg 51%
    14:00 +19°C° 0.1 mm 1 m/s 714 mmHg 53%
    15:00 +18°C° 0.1 mm 2 m/s 714 mmHg 55%
    16:00 +18°C° 0.1 mm 2 m/s 713 mmHg 57%
    17:00 +17°C° 0.1 mm 2 m/s 713 mmHg 62%
    18:00 +16°C° 0.1 mm 2 m/s 713 mmHg 67%
    19:00 +16°C° 0.1 mm 1 m/s 713 mmHg 73%
    20:00 +14°C° 0 mm 1 m/s 713 mmHg 78%
    21:00 +12°C° 0 mm 1 m/s 714 mmHg 83%
    22:00 +11°C° 0 mm 1 m/s 714 mmHg 88%
    23:00 +10°C° 0 mm 1 m/s 714 mmHg 89%

    9 Juin, Mardi

    Heure Température Précipitation Vent Pression Humidité
    00:00 +10°C° 0 mm 1 m/s 714 mmHg 91%
    01:00 +9°C° 0 mm 1 m/s 714 mmHg 92%
    02:00 +9°C° 0 mm 1 m/s 714 mmHg 92%
    03:00 +9°C° 0 mm 1 m/s 714 mmHg 92%
    04:00 +9°C° 0 mm 1 m/s 714 mmHg 91%
    05:00 +11°C° 0 mm 1 m/s 715 mmHg 86%
    06:00 +12°C° 0 mm 1 m/s 715 mmHg 81%
    07:00 +14°C° 0 mm 1 m/s 715 mmHg 75%
    08:00 +15°C° 0.1 mm 2 m/s 716 mmHg 72%
    09:00 +16°C° 0.1 mm 2 m/s 716 mmHg 69%
    10:00 +17°C° 0.1 mm 3 m/s 716 mmHg 65%
    11:00 +17°C° 0.1 mm 3 m/s 716 mmHg 63%
    12:00 +18°C° 0.1 mm 3 m/s 716 mmHg 62%
    13:00 +18°C° 0.1 mm 3 m/s 716 mmHg 60%
    14:00 +18°C° 0 mm 4 m/s 716 mmHg 59%
    15:00 +18°C° 0 mm 4 m/s 716 mmHg 59%
    16:00 +19°C° 0 mm 4 m/s 716 mmHg 58%
    17:00 +18°C° 0.1 mm 3 m/s 715 mmHg 64%
    18:00 +17°C° 0.1 mm 3 m/s 715 mmHg 70%
    19:00 +16°C° 0.1 mm 3 m/s 715 mmHg 76%
    20:00 +14°C° 0 mm 2 m/s 715 mmHg 81%
    21:00 +13°C° 0 mm 2 m/s 716 mmHg 86%
    22:00 +12°C° 0 mm 1 m/s 716 mmHg 92%
    23:00 +11°C° 0 mm 1 m/s 716 mmHg 92%

    10 Juin, Mercredi

    Heure Température Précipitation Vent Pression Humidité
    00:00 +11°C° 0 mm 1 m/s 715 mmHg 92%
    01:00 +10°C° 0 mm 1 m/s 715 mmHg 93%
    02:00 +10°C° 0 mm 1 m/s 715 mmHg 93%
    03:00 +10°C° 0 mm 1 m/s 715 mmHg 93%
    04:00 +10°C° 0 mm 1 m/s 715 mmHg 94%
    05:00 +10°C° 0 mm 2 m/s 715 mmHg 90%
    06:00 +12°C° 0 mm 2 m/s 715 mmHg 87%
    07:00 +13°C° 0 mm 2 m/s 715 mmHg 83%
    08:00 +14°C° 0 mm 2 m/s 715 mmHg 80%
    09:00 +13°C° 0 mm 3 m/s 716 mmHg 78%
    10:00 +14°C° 0 mm 3 m/s 716 mmHg 75%
    11:00 +14°C° 0.1 mm 3 m/s 715 mmHg 77%
    12:00 +13°C° 0.1 mm 3 m/s 715 mmHg 79%
    13:00 +13°C° 0.1 mm 3 m/s 715 mmHg 80%
    14:00 +13°C° 0 mm 3 m/s 715 mmHg 79%
    15:00 +13°C° 0 mm 3 m/s 714 mmHg 77%
    16:00 +13°C° 0 mm 3 m/s 714 mmHg 76%
    17:00 +13°C° 0 mm 3 m/s 714 mmHg 75%
    18:00 +14°C° 0 mm 2 m/s 714 mmHg 74%
    19:00 +14°C° 0 mm 1 m/s 714 mmHg 74%
    20:00 +13°C° 0 mm 1 m/s 714 mmHg 75%
    21:00 +13°C° 0 mm 1 m/s 714 mmHg 76%
    22:00 +12°C° 0 mm 1 m/s 714 mmHg 77%
    23:00 +12°C° 0 mm 1 m/s 714 mmHg 79%

    11 Juin, Jeudi

    Heure Température Précipitation Vent Pression Humidité
    00:00 +12°C° 0 mm 1 m/s 713 mmHg 81%
    01:00 +12°C° 0 mm 1 m/s 713 mmHg 82%
    02:00 +11°C° 0 mm 1 m/s 713 mmHg 85%
    03:00 +11°C° 0 mm 1 m/s 713 mmHg 87%
    04:00 +11°C° 0 mm 1 m/s 713 mmHg 90%
    05:00 +11°C° 0.2 mm 1 m/s 712 mmHg 91%
    06:00 +11°C° 0.2 mm 1 m/s 712 mmHg 91%
    07:00 +11°C° 0.2 mm 1 m/s 712 mmHg 91%
    08:00 +11°C° 0.1 mm 1 m/s 712 mmHg 89%
    09:00 +12°C° 0.1 mm 1 m/s 712 mmHg 88%
    10:00 +12°C° 0.1 mm 1 m/s 712 mmHg 86%
    11:00 +12°C° 0.1 mm 1 m/s 712 mmHg 85%
    12:00 +12°C° 0.1 mm 1 m/s 711 mmHg 84%
    13:00 +13°C° 0.1 mm 1 m/s 711 mmHg 83%
    14:00 +14°C° 0 mm 1 m/s 711 mmHg 78%
    15:00 +16°C° 0 mm 1 m/s 710 mmHg 74%
    16:00 +18°C° 0 mm 1 m/s 710 mmHg 70%
    17:00 +16°C° 0 mm 1 m/s 710 mmHg 74%
    18:00 +16°C° 0 mm 2 m/s 710 mmHg 77%
    19:00 +15°C° 0 mm 2 m/s 710 mmHg 80%
    20:00 +14°C° 0 mm 1 m/s 709 mmHg 85%
    21:00 +12°C° 0 mm 1 m/s 709 mmHg 90%
    22:00 +11°C° 0 mm 1 m/s 709 mmHg 95%
    23:00 +11°C° 0 mm 1 m/s 709 mmHg 95%
    Voir plus